Lid_Strength_Index
7 6 6 6 5 3 2 1 0 1 1 1 1 1 1 2 2 2 2 3 2 3
8 7 7 6 4 4 3 2 0 0 1 1 1 1 1 2 2 1 2 2 2 2
8 8 7 6 6 6 4 3 2 1 1 1 1 1 1 1 1 1 2 2 2 2
9 8 8 8 8 7 6 6 5 3 2 1 1 1 1 1 1 2 2 1 2 2
11 9 10 11 10 9 8 7 7 5 2 1 1 1 1 2 1 2 2 2 2 2
12 12 11 12 11 10 10 9 8 6 5 3 3 1 1 1 1 2 2 2 2 2
13 13 12 13 12 11 10 10 9 8 7 6 4 3 2 2 1 1 1 1 1 2
15 15 15 15 14 13 12 11 10 9 9 8 7 6 5 5 5 5 4 2 2 2
17 17 17 16 16 15 14 12 11 10 10 9 8 8 8 7 7 7 6 5 4 5
18 19 18 18 17 17 15 13 12 11 10 10 9 8 8 8 8 8 7 7 6 7
19 19 18 18 18 18 16 15 13 11 11 10 9 8 8 9 8 8 8 8 8 8
19 19 19 19 19 18 17 16 14 12 11 11 11 9 8 9 9 10 10 10 10 10
20 20 20 19 19 18 17 16 14 12 11 11 11 9 9 9 10 11 11 10 11 11
21 21 20 19 18 18 17 16 14 12 11 10 10 9 9 8 10 10 11 11 11 11